Weather History for Andrews, NC

Change the Weather History Date:

Friday, July 26, 2013

  Actual Average (KTYS) Record (KTYS)
Temperature  
Mean Temperature 70 °F 78 °F  
Max Temperature 83 °F 88 °F 99 °F (1952)
Min Temperature 57 °F 69 °F 56 °F (1911)
Degree Days  
Heating Degree Days 0 0  
Month to date heating degree days 0  
Since 1 June heating degree days 4  
Since 1 July heating degree days 0  
Cooling Degree Days 5 14  
Month to date cooling degree days 354  
Year to date cooling degree days 821  
Since 1 June cooling degree days 659  
Growing Degree Days 20 (Base 50)    
Moisture  
Dew Point 64 °F    
Average Humidity 83    
Maximum Humidity 99    
Minimum Humidity 56    
Precipitation  
Precipitation 0.01 in 0.16 in 3.27 in (2004)
Month to date precipitation 4.36  
Year to date precipitation 29.61  
Snow  
Snow 0.00 in 0.00 in - ()
Month to date snowfall 0.0  
Since 1 June snowfall 0.0  
Since 1 July snowfall 0.0  
Snow Depth -    
Sea Level Pressure  
Sea Level Pressure 30.09 in    
Wind  
Wind Speed 1 mph (WSW)    
Max Wind Speed 9 mph    
Max Gust Speed 10 mph    
Visibility 8 miles    
Events Rain    
T = Trace of Precipitation, MM = Missing Value Source: NWS Daily Summary

Daily Weather History Graph

Daily Weather History Graph

Search for Another Location

Airport:

Trip Planner

Search our weather history database for the weather conditions in past years. The results will help you decide how hot, cold, wet, or windy it might be!

Date:

Astronomy

Jul. 26, 2013 Rise Set
Actual Time 6:40 AM EDT 8:43 PM EDT
Civil Twilight 6:11 AM EDT 9:11 PM EDT
Nautical Twilight 5:37 AM EDT 9:45 PM EDT
Astronomical Twilight 5:00 AM EDT 10:22 PM EDT
Moon 11:10 PM EDT (7/26) 11:02 AM EDT (7/26)
Length of Visible Light 14h 59m
Length of Day
14h 03m
Waning Gibbous, 80% of the Moon is Illuminated
Jul 26
Waning Gibbous
Jul 29
Last Quarter
Aug 6
New
Aug 14
First Quarter
Aug 20
Full

Hourly Weather History & Observations

Time (EDT) Temp. Heat Index Dew Point Humidity Pressure Visibility Wind Dir Wind Speed Gust Speed Precip Events Conditions
12:15 AM 63.0 °F - 62.1 °F 97% 30.09 in 7.0 mi Calm Calm - N/A   Clear
12:35 AM 63.0 °F - 61.7 °F 96% 30.09 in 10.0 mi Calm Calm - N/A   Clear
12:55 AM 62.4 °F - 61.5 °F 97% 30.09 in 7.0 mi Calm Calm - N/A   Clear
1:15 AM 62.6 °F - 61.2 °F 95% 30.08 in 10.0 mi Calm Calm - N/A   Clear
1:35 AM 61.5 °F - 60.8 °F 97% 30.08 in 7.0 mi Calm Calm - N/A   Clear
1:55 AM 61.7 °F - 61.0 °F 97% 30.08 in 7.0 mi Calm Calm - N/A   Clear
2:15 AM 60.4 °F - 59.5 °F 97% 30.08 in 7.0 mi Calm Calm - N/A   Clear
2:35 AM 60.1 °F - 59.5 °F 98% 30.08 in 5.0 mi Calm Calm - N/A   Clear
2:55 AM 59.9 °F - 59.4 °F 98% 30.08 in 4.0 mi Calm Calm - N/A   Clear
3:15 AM 59.5 °F - 59.2 °F 99% 30.07 in 4.0 mi Calm Calm - N/A   Clear
3:35 AM 59.9 °F - 59.0 °F 97% 30.08 in 7.0 mi Calm Calm - N/A   Clear
3:55 AM 58.8 °F - 58.5 °F 99% 30.08 in 3.0 mi Calm Calm - N/A   Clear
4:15 AM 59.0 °F - 58.5 °F 98% 30.08 in 7.0 mi Calm Calm - N/A   Clear
4:35 AM 58.6 °F - 58.3 °F 99% 30.08 in 5.0 mi Calm Calm - N/A   Clear
4:55 AM 58.5 °F - 58.1 °F 99% 30.08 in 4.0 mi Calm Calm - N/A   Clear
5:15 AM 58.1 °F - 57.7 °F 99% 30.08 in 4.0 mi Calm Calm - N/A   Clear
5:35 AM 58.1 °F - 57.6 °F 98% 30.09 in 5.0 mi Calm Calm - N/A   Scattered Clouds
5:55 AM 57.7 °F - 57.4 °F 99% 30.09 in 5.0 mi Calm Calm - N/A   Scattered Clouds
6:15 AM 57.7 °F - 57.6 °F 99% 30.09 in 4.0 mi Calm Calm - N/A   Scattered Clouds
6:35 AM 57.2 °F - 56.7 °F 98% 30.10 in 5.0 mi Calm Calm - N/A   Scattered Clouds
6:55 AM 57.2 °F - 56.8 °F 99% 30.10 in 4.0 mi Calm Calm - N/A   Mostly Cloudy
7:15 AM 57.7 °F - 57.4 °F 99% 30.11 in 4.0 mi Calm Calm - N/A   Scattered Clouds
7:35 AM 59.0 °F - 58.3 °F 97% 30.12 in 4.0 mi Calm Calm - 0.01 in   Clear
7:55 AM 59.9 °F - 59.2 °F 97% 30.13 in 7.0 mi Calm Calm - 0.01 in   Clear
8:15 AM 61.9 °F - 60.3 °F 94% 30.13 in 7.0 mi Calm Calm - N/A   Clear
8:35 AM 63.7 °F - 61.2 °F 91% 30.12 in 10.0 mi Calm Calm - N/A   Clear
8:55 AM 64.9 °F - 61.9 °F 90% 30.13 in 10.0 mi Calm Calm - N/A   Clear
9:15 AM 68.0 °F - 62.8 °F 83% 30.14 in 10.0 mi Calm Calm - N/A   Scattered Clouds
9:35 AM 68.5 °F - 64.4 °F 87% 30.14 in 10.0 mi Calm Calm - N/A   Mostly Cloudy
9:55 AM 70.9 °F - 65.5 °F 83% 30.13 in 10.0 mi Calm Calm - N/A   Scattered Clouds
10:15 AM 72.5 °F - 65.5 °F 79% 30.13 in 10.0 mi Calm Calm - N/A   Scattered Clouds
10:35 AM 74.7 °F - 66.2 °F 75% 30.12 in 10.0 mi WSW 3.5 mph - N/A   Scattered Clouds
10:55 AM 75.9 °F - 65.3 °F 70% 30.12 in 10.0 mi Calm Calm - N/A   Scattered Clouds
11:15 AM 77.4 °F - 65.5 °F 67% 30.12 in 10.0 mi Calm Calm - N/A   Mostly Cloudy
11:35 AM 77.5 °F - 65.7 °F 67% 30.12 in 10.0 mi West 3.5 mph - N/A   Scattered Clouds
11:55 AM 78.3 °F - 66.7 °F 68% 30.12 in 10.0 mi WNW 4.6 mph - N/A   Scattered Clouds
12:15 PM 79.7 °F - 66.9 °F 65% 30.12 in 10.0 mi West 4.6 mph - N/A   Scattered Clouds
12:35 PM 80.2 °F 82.5 °F 66.6 °F 63% 30.11 in 10.0 mi Calm Calm - N/A   Scattered Clouds
12:55 PM 81.7 °F 83.8 °F 66.0 °F 59% 30.11 in 10.0 mi South 4.6 mph - N/A   Mostly Cloudy
1:15 PM 82.6 °F 84.7 °F 66.0 °F 57% 30.10 in 10.0 mi SW 3.5 mph - N/A   Scattered Clouds
1:35 PM 83.1 °F 85.2 °F 66.0 °F 56% 30.09 in 10.0 mi SW 6.9 mph - N/A   Scattered Clouds
1:55 PM 81.0 °F 83.2 °F 66.2 °F 61% 30.09 in 10.0 mi SSE 4.6 mph - N/A   Mostly Cloudy
2:15 PM 81.5 °F 83.7 °F 66.2 °F 60% 30.08 in 10.0 mi Calm Calm - N/A   Overcast
2:35 PM 81.1 °F 83.4 °F 66.6 °F 61% 30.08 in 10.0 mi WSW 5.8 mph - N/A   Mostly Cloudy
2:55 PM 79.0 °F - 66.6 °F 66% 30.08 in 10.0 mi South 6.9 mph 10.4 mph N/A   Mostly Cloudy
3:15 PM 77.9 °F - 65.3 °F 65% 30.08 in 10.0 mi SSW 8.1 mph - N/A   Mostly Cloudy
3:35 PM 79.0 °F - 64.0 °F 60% 30.08 in 10.0 mi Calm Calm - N/A   Overcast
3:55 PM 79.0 °F - 64.6 °F 61% 30.07 in 10.0 mi ENE 3.5 mph - N/A   Overcast
4:15 PM 79.7 °F - 63.9 °F 58% 30.06 in 10.0 mi East 5.8 mph - N/A   Overcast
4:35 PM 81.3 °F 82.9 °F 64.0 °F 56% 30.06 in 10.0 mi Calm Calm - N/A   Mostly Cloudy
4:55 PM 80.4 °F 82.1 °F 64.6 °F 58% 30.05 in 10.0 mi Calm Calm - N/A   Scattered Clouds
5:15 PM 77.9 °F - 65.7 °F 66% 30.06 in 10.0 mi West 3.5 mph - N/A   Scattered Clouds
5:35 PM 79.3 °F - 65.1 °F 62% 30.06 in 10.0 mi Calm Calm - N/A   Mostly Cloudy
5:55 PM 78.6 °F - 66.7 °F 67% 30.05 in 10.0 mi Calm Calm - N/A   Scattered Clouds
6:15 PM 80.1 °F 81.9 °F 64.9 °F 60% 30.05 in 10.0 mi Calm Calm - N/A   Clear
6:35 PM 80.6 °F 82.3 °F 64.8 °F 58% 30.04 in 10.0 mi North 3.5 mph - N/A   Scattered Clouds
6:55 PM 78.1 °F - 66.7 °F 68% 30.04 in 10.0 mi Calm Calm - N/A   Mostly Cloudy
7:15 PM 76.5 °F - 70.2 °F 81% 30.05 in 10.0 mi Calm Calm - N/A   Overcast
7:35 PM 74.1 °F - 68.0 °F 81% 30.05 in 10.0 mi SW 9.2 mph - N/A Rain Light Rain
7:55 PM 70.3 °F - 66.7 °F 88% 30.07 in 3.0 mi WNW 3.5 mph - N/A Rain Heavy Rain
8:15 PM 68.9 °F - 67.1 °F 94% 30.08 in 7.0 mi Calm Calm - N/A Rain Light Rain
8:35 PM 69.1 °F - 67.1 °F 93% 30.10 in 10.0 mi South 5.8 mph - N/A Rain Light Rain
8:55 PM 68.2 °F - 67.1 °F 96% 30.10 in 7.0 mi West 3.5 mph - N/A Rain Rain
9:15 PM 68.4 °F - 67.6 °F 98% 30.09 in 7.0 mi East 3.5 mph - N/A Rain Light Rain
9:35 PM 68.4 °F - 67.8 °F 98% 30.10 in 7.0 mi Calm Calm - N/A   Overcast
9:55 PM 68.2 °F - 67.6 °F 98% 30.09 in 7.0 mi WNW 3.5 mph - N/A   Overcast
10:15 PM 68.2 °F - 68.0 °F 99% 30.09 in 5.0 mi Calm Calm - N/A Rain Light Rain
10:35 PM 68.0 °F - 67.5 °F 98% 30.08 in 5.0 mi Calm Calm - N/A   Mostly Cloudy
10:55 PM 68.0 °F - 67.5 °F 98% 30.08 in 5.0 mi Calm Calm - N/A   Mostly Cloudy
11:15 PM 67.6 °F - 67.1 °F 98% 30.08 in 7.0 mi Calm Calm - N/A   Mostly Cloudy
11:35 PM 67.6 °F - 67.1 °F 98% 30.07 in 7.0 mi Calm Calm - N/A   Mostly Cloudy
11:55 PM 67.1 °F - 66.7 °F 99% 30.08 in 7.0 mi Calm Calm - N/A   Mostly Cloudy